Jordan, MT

5:49 AM MDT on October 17, 2017 (GMT -0600)
Jordan

Weather History for KJDN - May, 2013

Change the Weather History Date:

Sunday, May 12, 2013

  Actual Average Record
Temperature  
Mean Temperature 66 °F 51 °F  
Max Temperature 89 °F 66 °F 95 °F (1949)
Min Temperature 43 °F 37 °F 22 °F (1943)
Degree Days  
Heating Degree Days 0 14  
Month to date heating degree days 173 184  
Since 1 July heating degree days 7495 7918  
Cooling Degree Days 1 0  
Month to date cooling degree days 1 0  
Year to date cooling degree days 1 0  
Growing Degree Days 16 (Base 50)    
Moisture  
Dew Point 36 °F    
Average Humidity 38    
Maximum Humidity 57    
Minimum Humidity 18    
Precipitation  
Precipitation 0.00 in 0.05 in 1.14 in (1983)
Month to date precipitation 0.00 0.67  
Year to date precipitation 2.84 2.75  
Snow  
Snow 0.00 in - - ()
Month to date snowfall 0.0  
Since 1 July snowfall 0.0  
Snow Depth 0.00 in    
Sea Level Pressure  
Sea Level Pressure 29.91 in    
Wind  
Wind Speed 6 mph (West)    
Max Wind Speed 20 mph    
Max Gust Speed 25 mph    
T = Trace of Precipitation, MM = Missing Value Source: NWS Daily Summary

Daily Weather History Graph

Daily Weather History Graph

Search for Another Location

Airport or City:

Trip Planner

Search our weather history database for the weather conditions in past years. The results will help you decide how hot, cold, wet, or windy it might be!

Date:

Astronomy

May. 12, 2013 Rise Set
Actual Time 5:34 AM MDT 8:34 PM MDT
Civil Twilight 4:58 AM MDT 9:10 PM MDT
Nautical Twilight 4:12 AM MDT 9:56 PM MDT
Astronomical Twilight 3:16 AM MDT 10:53 PM MDT
Moon 7:29 AM MDT (5/12) 11:05 PM MDT (5/12)
Length of Visible Light 16h 11m
Length of Day
14h 59m
Waxing Crescent, 7% of the Moon is Illuminated
May 12
Waxing Crescent
May 17
First Quarter
May 24
Full
May 31
Last Quarter
Jun 8
New

Hourly Weather History & Observations

Time (MDT) Temp. Dew Point Humidity Pressure Visibility Wind Dir Wind Speed Gust Speed Precip Events Conditions
12:48 AM 55.0 °F 25.0 °F 31% 30.08 in - East 8.1 mph - N/A   Unknown
1:48 AM 51.1 °F 25.0 °F 36% 30.07 in - SE 6.9 mph - N/A   Unknown
2:48 AM 51.1 °F 25.0 °F 36% 30.05 in - ESE 4.6 mph - N/A   Unknown
3:48 AM 50.0 °F 26.1 °F 39% 30.03 in - SE 5.8 mph - N/A   Unknown
4:48 AM 46.9 °F 26.1 °F 44% 30.02 in - ESE 4.6 mph - N/A   Unknown
5:48 AM 45.0 °F 27.0 °F 49% 30.02 in - Calm Calm - N/A   Unknown
6:48 AM 48.9 °F 28.9 °F 46% 30.01 in - Calm Calm - N/A   Unknown
7:48 AM 54.0 °F 33.1 °F 45% 30.00 in - ESE 3.5 mph - N/A   Unknown
8:48 AM 63.0 °F 35.1 °F 35% 29.99 in - SSE 4.6 mph - N/A   Unknown
9:48 AM 70.0 °F 39.0 °F 32% 29.96 in - Variable 5.8 mph - N/A   Unknown
10:48 AM 75.9 °F 41.0 °F 29% 29.95 in - WSW 9.2 mph - N/A   Unknown
11:48 AM 81.0 °F 41.0 °F 24% 29.91 in - West 5.8 mph - N/A   Unknown
12:48 PM 84.0 °F 39.0 °F 20% 29.88 in - NNW 10.4 mph - N/A   Unknown
1:48 PM 84.9 °F 37.9 °F 19% 29.88 in - WNW 9.2 mph - N/A   Unknown
2:48 PM 87.1 °F 39.9 °F 19% 29.85 in - West 8.1 mph 21.9 mph N/A   Unknown
3:48 PM 88.0 °F 39.0 °F 18% 29.82 in - WNW 10.4 mph 19.6 mph N/A   Unknown
4:48 PM 87.1 °F 41.0 °F 20% 29.81 in - WNW 13.8 mph 19.6 mph N/A   Unknown
5:48 PM 84.9 °F 39.0 °F 20% 29.81 in - West 9.2 mph - N/A   Unknown
6:48 PM 81.0 °F 44.1 °F 27% 29.78 in - WSW 5.8 mph - N/A   Unknown
7:48 PM 79.0 °F 43.0 °F 28% 29.78 in - WNW 8.1 mph - N/A   Unknown
8:48 PM 66.0 °F 45.0 °F 47% 29.80 in - Calm Calm - N/A   Unknown
9:48 PM 62.1 °F 45.0 °F 53% 29.80 in - WNW 4.6 mph - N/A   Unknown
10:48 PM 60.1 °F 44.1 °F 55% 29.79 in - WNW 6.9 mph - N/A   Unknown
11:48 PM 57.0 °F 43.0 °F 59% 29.78 in - WNW 8.1 mph - N/A   Unknown